#timestamp,LO_Frequency,Hit,StdDev 
1627675215.2,286047001.5,N
1627675235.0,286047002.3,N
1627675235.9,286047002.3,N
1627675255.7,286047001.7,N
1627675275.6,286047002.5,N
1627675295.4,286047000.2,N
1627675315.3,286047000.5,N
1627675335.1,286047000.7,N
1627675336.0,286047000.7,N
1627675355.8,286047000.4,N
1627675375.7,286047000.2,N
1627675395.5,286047002.4,N
1627675415.4,286047002.0,N
1627675435.2,286047004.2,Y
1627675455.0,286047002.7,P
1627675455.9,286047002.7,P
1627675475.8,286047002.5,P
1627675495.6,286047001.2,N
1627675515.5,286047001.2,N
1627675535.3,286047001.1,N
1627675555.1,286046998.2,N
1627675575.9,286047000.6,N
1627675595.7,286047000.7,N
1627675615.5,286047000.7,N
1627675635.4,286047000.7,N
1627675655.2,286046998.5,N
1627675675.0,286046998.7,N
1627675676.0,286046998.7,N
1627675695.8,286046999.2,N
1627675715.6,286046998.9,N
1627675735.5,286046998.5,N
1627675755.3,286046998.6,N
1627675775.1,286047001.2,N
1627675795.9,286047002.8,N
1627675815.7,286047002.4,N
1627675835.5,286047000.5,N
1627675855.4,286047000.6,N
1627675875.2,286047001.1,N
1627675895.1,286047001.2,N
1627675896.0,286047001.2,N
1627675915.8,286046998.6,N
1627675935.6,286046998.7,N
1627675955.5,286046998.4,N
1627675975.3,286046999.4,N
1627675995.1,286046998.3,N
1627676015.9,286046998.3,N
1627676035.7,286046999.3,N
1627676055.6,286046999.3,N
1627676075.4,286046998.5,N
1627676095.2,286047000.3,N
1627676115.1,286046998.3,N
1627676116.0,286046998.3,N
1627676135.8,286046999.1,N
1627676155.6,286046998.6,N
1627676175.5,286046998.3,N
1627676195.3,286046998.5,N
1627676215.2,286046998.1,N
1627676235.9,286047001.2,N
1627676255.7,286047000.4,N
1627676275.6,286046999.1,N
1627676295.4,286046998.7,N
1627676315.2,286047001.0,N
1627676335.1,286047002.6,N
1627676336.0,286047002.6,N
1627676355.8,286047002.0,N
1627676375.7,286047004.4,Y
1627676395.5,286047003.7,P
1627676415.3,286047001.3,N
1627676435.2,286047003.9,N
1627676455.0,286047001.8,N
1627676455.9,286047001.8,N
1627676475.8,286047001.9,N
1627676495.6,286047001.9,N
1627676515.4,286047001.9,N
1627676535.3,286047001.5,N
1627676555.1,286047002.2,N
1627676575.8,286047000.2,N
1627676595.7,286047000.5,N
1627676615.5,286047000.4,N
1627676635.4,286046998.7,N
1627676655.2,286046999.0,N
1627676675.0,286046999.4,N
1627676675.9,286046999.4,N
1627676695.8,286046996.5,N
1627676715.6,286046999.5,N
1627676735.4,286046999.5,N
1627676755.3,286046999.6,N
1627676775.1,286046998.9,N
1627676795.9,286046998.9,N
1627676815.7,286046999.3,N
1627676835.5,286047000.8,N
1627676855.4,286047000.4,N
1627676875.2,286047001.9,N
1627676895.0,286047001.4,N
1627676896.0,286047001.4,N
1627676915.8,286047001.7,N
1627676935.6,286047001.7,N
1627676955.5,286047001.6,N
1627676975.3,286047004.3,N
1627676995.2,286047001.8,N
1627677015.9,286047001.9,N
1627677035.7,286047002.6,N
1627677055.6,286047001.9,N
1627677075.4,286047002.2,N
1627677095.2,286047001.6,N
1627677115.1,286047004.0,N
1627677116.0,286047004.0,N
1627677135.8,286047001.7,N
1627677155.7,286047004.0,N
1627677175.5,286047001.6,N
1627677195.3,286047002.5,N
1627677215.2,286047000.4,N
1627677235.0,286047001.0,N
1627677235.9,286047001.0,N
1627677255.8,286046998.1,N
1627677275.6,286047000.3,N
1627677295.4,286047002.5,N
1627677315.3,286047000.1,N
1627677335.1,286047000.9,N
1627677355.9,286046998.4,N
1627677375.7,286046998.4,N
1627677395.5,286046998.8,N
1627677415.4,286046998.5,N
1627677435.2,286046998.6,N
1627677455.1,286047001.1,N
1627677456.0,286047001.1,N
1627677475.8,286046998.8,N
1627677495.6,286046999.1,N
1627677515.5,286046999.4,N
1627677535.3,286046999.2,N
1627677555.1,286046998.7,N
1627677575.9,286046999.3,N
1627677595.7,286046999.6,N
1627677615.6,286046997.1,N
1627677635.4,286046999.5,N
1627677655.2,286046999.5,N
1627677675.1,286046999.2,N
1627677676.0,286046999.2,N
1627677695.8,286046998.2,N
1627677715.7,286046999.0,N
1627677735.5,286046999.1,N
1627677755.3,286047001.2,N
1627677775.2,286047001.1,N
1627677795.0,286046998.1,N
1627677795.9,286046998.1,N
1627677815.7,286047000.4,N
1627677835.6,286047000.4,N
1627677855.4,286047002.2,N
1627677875.3,286047001.7,N
1627677895.1,286047002.0,N
1627677915.8,286047001.6,N
1627677935.7,286047001.5,N
1627677955.5,286047002.5,N
1627677975.4,286047002.2,N
1627677995.2,286047001.9,N
1627678015.0,286047002.0,N
1627678016.0,286047002.0,N
1627678035.8,286047002.2,N
1627678055.6,286046999.8,N
1627678075.5,286047002.7,N
1627678095.3,286047000.1,N
1627678115.1,286047002.4,N
1627678135.9,286047002.6,N
1627678155.7,286047001.9,N
1627678175.6,286047002.3,N
1627678195.4,286046999.7,N
1627678215.2,286047002.1,N
1627678235.1,286047002.7,N
1627678236.0,286047002.7,N
1627678255.8,286047000.2,N
1627678275.7,286047002.6,N
1627678295.5,286047002.6,N
1627678315.3,286047001.8,N
1627678335.2,286047002.3,N
1627678355.0,286046999.8,N
1627678355.9,286046999.8,N
1627678375.8,286047002.3,N
1627678395.6,286047001.7,N
1627678415.4,286047001.7,N
1627678435.3,286047001.9,N
1627678455.1,286047001.8,N
1627678475.8,286046999.7,N
1627678495.7,286047002.0,N
1627678515.5,286047001.8,N
1627678535.4,286047001.8,N
1627678555.2,286047002.2,N
1627678575.0,286047001.6,N
1627678575.9,286047001.6,N
1627678595.8,286047002.2,N
1627678615.6,286047001.6,N
1627678635.4,286047001.5,N
1627678655.3,286047002.0,N
1627678675.1,286047001.6,N
1627678695.9,286047004.2,Y
1627678715.7,286047001.0,P
1627678735.5,286047000.9,N
1627678755.4,286047000.5,N
1627678775.2,286047000.0,N
1627678795.0,286047000.4,N
1627678795.9,286047000.4,N
